AirNav   Phillips 66 Aviation Fuel
 
 286 users online  

C04 Oceana County Airport
Hart/Shelby, Michigan, USA

GOING TO HART/SHELBY?


FAA INFORMATION EFFECTIVE 12 SEPTEMBER 2019

Location

FAA Identifier: C04
Lat/Long: 43-38-29.8850N 086-19-44.6355W
43-38.498083N 086-19.743925W
43.6416347,-86.3290654
(estimated)
Elevation: 915.8 ft. / 279.1 m (surveyed)
Variation: 05W (2015)
From city: 4 miles SE of central business district of the associated city
Time zone: UTC -4 (UTC -5 during Standard Time)
Zip code: 49455

Airport Operations

Airport use: Open to the public
Activation date: 11/1950
Control tower: no
ARTCC: CHICAGO CENTER
FSS: LANSING FLIGHT SERVICE STATION
NOTAMs facility: LAN (NOTAM-D service available)
Attendance: IREG
Wind indicator: lighted
Segmented circle: yes
Lights: ACTVT PAPI RWY 09 & 27; MIRL RWY 09/27 - CTAF.

Airport Communications

CTAF/UNICOM: 122.7
WX AWOS-A: 122.7 (231-861-7415)
GREAT LAKES APPROACH: 119.8
GREAT LAKES DEPARTURE: 119.8
WX AWOS-3 at FFX (19 nm SE): 118.775 (231-928-0715)
WX AWOS-3 at LDM (20 nm N): 119.925 (231-843-0459)
  • APCH/DEP SVC PRVDD BY CHICAGO ARTCC ON FREQS 125.1/290.45 (MILWAUKEE RCAG) WHEN GREAT LAKES APCH CTL CLSD.

Nearby radio navigation aids

VOR radial/distance  VOR name  Freq  Var
HICr280/26.9WHITE CLOUD VOR/DME117.6001W
MKGr337/31.0MUSKEGON VORTAC115.2001W
MBLr190/37.9MANISTEE VOR/DME111.4005W

Airport Services

Fuel available: 100LL
FUEL 24 HR SELF SERVE.
Parking: tiedowns
Airframe service: NONE
RPRS ON CALL 231-861-2210 OR 231-730-6644.
Powerplant service: NONE
Bottled oxygen: NONE
Bulk oxygen: NONE

Runway Information

Runway 9/27

Dimensions: 3500 x 75 ft. / 1067 x 23 m
Surface: asphalt, in good condition
Weight bearing capacity: 
Single wheel: 12.5
Runway edge lights: medium intensity
RUNWAY 9  RUNWAY 27
Latitude: 43-38.457638N43-38.531437N
Longitude: 086-20.163433W086-19.376695W
Elevation: 915.7 ft.901.8 ft.
Traffic pattern: leftleft
Markings: nonprecision, in good conditionnonprecision, in good condition
Visual slope indicator: 2-light PAPI on left (4.00 degrees glide path)2-light PAPI on left (4.00 degrees glide path)
Runway end identifier lights: nono
Touchdown point: yes, no lightsyes, no lights
Obstructions: 17 ft. road, 459 ft. from runway, 15:1 slope to clear45 ft. trees, 845 ft. from runway, 210 ft. right of centerline, 14:1 slope to clear

Runway 15/33

Dimensions: 2251 x 100 ft. / 686 x 30 m
Surface: turf, in good condition
Operational restrictions: ROUGH & SOFT WHEN WET. DSPCLD THRS MKD WITH 3 FT YELLOW CONES.
RUNWAY 15  RUNWAY 33
Latitude: 43-38.651607N43-38.355587N
Longitude: 086-19.856740W086-19.549822W
Elevation: 897.1 ft.888.1 ft.
Traffic pattern: leftleft
Displaced threshold: 370 ft.557 ft.
Markings: NSTD, in fair conditionNSTD, in fair condition
Runway end identifier lights: nono
Touchdown point: yes, no lightsyes, no lights
Obstructions: 17 ft. road
APCH RATIO 20:1 AT DSPLCD THLD.
23 ft. trees, 115 ft. from runway, 75 ft. left of centerline, 5:1 slope to clear
APCH RATIO 21:1 AT DSPLCD THLD OVR 80 FT TREES, 1900 FT DSTC.

Airport Ownership and Management from official FAA records

Ownership: Publicly-owned
Owner: OCEANA COUNTY
COURT HOUSE, 100 S. STATE ST., P.O. BOX 14
HART, MI 49420
Phone 231-873-4835
Manager: CURT LOHMAN
1805 BASELINE RD
SHELBY, MI 49455
Phone 231-861-9910
231-742-0142

Airport Operational Statistics

Aircraft based on the field: 33
Single engine airplanes: 31
Multi engine airplanes: 1
Ultralights: 1
    
Aircraft operations: avg 57/week *
50% transient general aviation
50% local general aviation
* for 12-month period ending 31 December 2017

Additional Remarks

RADIO CONTROLLED MODEL ACFT OPNS ON RY 15 END.
FOR DIGIWX AWOS CLICK MIC 2X 122.7.
FOR FICONS CALL 231-861-4272 (AMGR RES) OR 231-742-0142 (CELL).
ADMIN BLDG ACCESS: V, THEN III-II SIMUL, THEN I.
RWY 15/33 CLSD DEC-MAR & WHEN SNW COVERED.
FOR CD CTC GREAT LAKES APCH AT 269-459-3345, WHEN APCH CLSD CTC CHICAGO ARTCC AT 630-906-8921.

Instrument Procedures

NOTE: All procedures below are presented as PDF files. If you need a reader for these files, you should download the free Adobe Reader.

NOT FOR NAVIGATION. Please procure official charts for flight.
FAA instrument procedures published for use from 12 September 2019 at 0901Z to 10 October 2019 at 0900Z.

 
IAPs - Instrument Approach Procedures
RNAV (GPS) RWY 09   download (184KB)
RNAV (GPS) RWY 27   download (214KB)
NOTE: Special Take-Off Minimums/Departure Procedures apply   download (183KB)

Other nearby airports with instrument procedures:

KFFX - Fremont Municipal Airport (19 nm SE)
KLDM - Mason County Airport (20 nm N)
7D3 - Baldwin Municipal Airport (25 nm NE)
KMKG - Muskegon County Airport (29 nm S)
KRQB - Roben-Hood Airport (36 nm E)
 
Loc | Ops | Rwys | IFR | FBO | Links
Com | Nav | Svcs | Stats | Notes
Area around C04 (Oceana County Airport)
 
Road maps at: MapQuest Bing Google
 
Aerial photo
WARNING: Photo may not be current or correct
Aerial photo of C04 (Oceana County Airport)
Do you have a better or more recent aerial photo of Oceana County Airport that you would like to share? If so, please send us your photo.

 
Sectional chart

 
Airport distance calculator
Flying to Oceana County Airport? Find the distance to fly.

From to C04

Sunrise and sunset
Times for 24-Sep-2019
 Local
(UTC-4)
 Zulu
(UTC)
Morning civil twilight07:0711:07
Sunrise07:3611:36
Sunset19:3923:39
Evening civil twilight20:0800:08

Current date and time
Zulu (UTC)  24-Sep-2019 08:55:04
Local (UTC-4)  24-Sep-2019 04:55:04
 
METAR
KFFX 
19nm SE 
240835Z AUTO 00000KT 2 1/2SM BR BKN075 12/11 A2995 RMK AO2 VIS 2V4 T01150106
KLDM 
20nm N 
240836Z AUTO 30003KT 10SM BKN070 16/13 A2993 RMK AO2 T01610132
KMKG 
29nm S 
240755Z AUTO 27006KT 10SM CLR 18/13 A2996 RMK AO2 SLP142 T01830133
KRQB 
36nm E 
240835Z AUTO 00000KT 7SM BKN070 11/10 A2995 RMK AO2 T01070104
KMBL 
38nm N 
240839Z AUTO 07003KT 1SM BR CLR 09/09 A2993 RMK AO2 VIS 1/2V2 PNO $
TAF
KMKG 
29nm S 
240540Z 2406/2506 26006KT P6SM SKC FM241700 23012KT P6SM SCT040 FM250000 21009KT P6SM SKC
NOTAMs
Click for the latest NOTAMs
NOTAMs are issued by the DoD/FAA and will open in a separate window not controlled by AirNav.

 

 
 

FBO, Fuel Providers, and Aircraft Ground Support

  
 Business Name 
 
 Contact 
 
 Services / Description 
 
Fuel Prices
 
Comments
  
Oceana County Airport 231-861-9910
no information available

If you are affiliated with Oceana County Airport and would like to show here your services, contact info, web link, logo, and more, click here
100LL
SS $5.05 
 Updated 09-Aug-2019
 
   write
SS=Self service
Update Fuel Prices
 

Would you like to see your business listed on this page?

 If your business provides an interesting product or service to pilots, flight crews, aircraft, or users of the Oceana County Airport, you should consider listing it here.  To start the listing process, click on the button below
 
Add a business
 

Other Pages about Oceana County Airport

www.oceanacountyairport.com
Page from the Michigan Airport Directory (PDF)
 
Update a link
 
Copyright © AirNav, LLC. All rights reserved. Privacy Policy  Contact